Location: De Greiden
(52.9496°N, 5.9137°E)
Time: 22:31:08
(UTC+00:00)

USA 290 - Pass Details

Date: 24 January 2021
Orbit: 397 x 414 km, 73.6° (Epoch: 27 January)

Event Time Altitude Azimuth Distance (km) Brightness Sun altitude
Rises 17:25:48 0° 342° (NNW) 2,324 6.0 -11.8°
Reaches altitude 10° 17:28:14 10° 1° (N) 1,459 4.8 -12.1°
Enters shadow 17:30:28 19° 46° (NE) 1,028 3.7 -12.4°
